China Lake, CA

7:28 AM PDT on September 22, 2017 (GMT -0700)
China Lake NAWS

Weather History for KNID - March, 2013

Change the Weather History Date:

Monday, March 11, 2013

  Actual Average Record
Temperature  
Mean Temperature 54 °F -  
Max Temperature 75 °F 69 °F 84 °F (1997)
Min Temperature 33 °F 42 °F 28 °F (2009)
Degree Days  
Heating Degree Days 11    
Growing Degree Days 4 (Base 50)    
Moisture  
Dew Point 18 °F    
Average Humidity 27    
Maximum Humidity 70    
Minimum Humidity 8    
Precipitation  
Precipitation 0.00 in - - ()
Sea Level Pressure  
Sea Level Pressure 30.15 in    
Wind  
Wind Speed 4 mph (SSE)    
Max Wind Speed 10 mph    
Max Gust Speed -    
Visibility 10 miles    
Events      
Averages and records for this station are not official NWS values.
T = Trace of Precipitation, MM = Missing Value Source: NWS Daily Summary

Daily Weather History Graph

Daily Weather History Graph

Search for Another Location

Airport or City:

Trip Planner

Search our weather history database for the weather conditions in past years. The results will help you decide how hot, cold, wet, or windy it might be!

Date:

Astronomy

Mar. 11, 2013 Rise Set
Actual Time 7:06 AM PDT 6:55 PM PDT
Civil Twilight 6:41 AM PDT 7:20 PM PDT
Nautical Twilight 6:11 AM PDT 7:50 PM PDT
Astronomical Twilight 5:41 AM PDT 8:20 PM PDT
Moon 6:44 AM PDT (3/11) 7:10 PM PDT (3/11)
Length of Visible Light 12h 39m
Length of Day
11h 48m
Waning Crescent, 0% of the Moon is Illuminated
Mar 11
Waning Crescent
Mar 11
New
Mar 19
First Quarter
Mar 27
Full
Apr 2
Last Quarter

Hourly Weather History & Observations

Time (PDT) Temp. Windchill Dew Point Humidity Pressure Visibility Wind Dir Wind Speed Gust Speed Precip Events Conditions
5:56 AM 35.1 °F 32.2 °F 24.1 °F 64% 30.21 in 10.0 mi North 3.5 mph - N/A   Clear
6:56 AM 33.1 °F 30.0 °F 24.1 °F 70% 30.23 in 10.0 mi SW 3.5 mph - N/A   Clear
7:56 AM 37.9 °F 33.5 °F 28.0 °F 68% 30.24 in 10.0 mi South 5.8 mph - N/A   Clear
8:56 AM 48.9 °F - 25.0 °F 39% 30.24 in 10.0 mi South 3.5 mph - N/A   Clear
9:56 AM 57.0 °F - 17.1 °F 21% 30.23 in 10.0 mi Calm Calm - N/A   Clear
10:56 AM 60.1 °F - 23.0 °F 24% 30.23 in 10.0 mi Calm Calm - N/A   Clear
11:56 AM 64.9 °F - 18.0 °F 16% 30.21 in 10.0 mi ESE 4.6 mph - N/A   Clear
12:56 PM 70.0 °F - 9.0 °F 9% 30.18 in 10.0 mi East 5.8 mph - N/A   Clear
1:56 PM 71.1 °F - 10.9 °F 10% 30.14 in 10.0 mi Variable 3.5 mph - N/A   Partly Cloudy
2:56 PM 72.0 °F - 12.0 °F 10% 30.11 in 10.0 mi Calm Calm - N/A   Partly Cloudy
3:56 PM 73.9 °F - 12.0 °F 9% 30.10 in 10.0 mi Variable 3.5 mph - N/A   Partly Cloudy
4:56 PM 75.0 °F - 10.0 °F 8% 30.07 in 10.0 mi Variable 4.6 mph - N/A   Clear
5:56 PM 73.9 °F - 10.9 °F 9% 30.06 in 10.0 mi East 6.9 mph - N/A   Clear
6:56 PM 69.1 °F - 10.0 °F 10% 30.07 in 10.0 mi ENE 5.8 mph - N/A   Clear
7:56 PM 60.1 °F - 19.0 °F 20% 30.09 in 10.0 mi South 3.5 mph - N/A   Clear
8:56 PM 64.0 °F - 14.0 °F 14% 30.09 in 10.0 mi Calm Calm - N/A   Clear
9:56 PM 54.0 °F - 24.1 °F 31% 30.10 in 10.0 mi SW 5.8 mph - N/A   Clear
10:56 PM 51.1 °F - 25.0 °F 36% 30.11 in 10.0 mi SSW 6.9 mph - N/A   Clear
11:56 PM 51.1 °F - 25.0 °F 36% 30.11 in 10.0 mi SSW 10.4 mph - N/A   Clear